This is the latest recevied weather packets stored in our database for station/object OK1VCF-8. If no packets are shown the sender has not sent any weather packets the latest 10 day(s).
| Time | Temp. | Humidity | Pressure | Rain* | Wind** | Luminosity | Snow |
|---|---|---|---|---|---|---|---|
| 1777948578 | 13.33° C | 88% | 1010.4 hPa | - | - | - | - |
| 1777948141 | 13.89° C | 87% | 1010.2 hPa | - | - | - | - |
| 1777947704 | 14.44° C | 86% | 1010.2 hPa | - | - | - | - |
| 1777947264 | 14.44° C | 86% | 1010.1 hPa | - | - | - | - |
| 1777946662 | 14.44° C | 86% | 1010.3 hPa | - | - | - | - |
| 1777946224 | 14.44° C | 85% | 1010.4 hPa | - | - | - | - |
| 1777945786 | 14.44° C | 84% | 1010.2 hPa | - | - | - | - |
| 1777945348 | 14.44° C | 84% | 1010.4 hPa | - | - | - | - |
| 1777944910 | 15° C | 80% | 1010.4 hPa | - | - | - | - |
| 1777944466 | 15° C | 78% | 1010.4 hPa | - | - | - | - |
| 1777944017 | 15° C | 80% | 1010.5 hPa | - | - | - | - |
| 1777943555 | 15.56° C | 79% | 1010.6 hPa | - | - | - | - |
| 1777943083 | 15.56° C | 75% | 1010.7 hPa | - | - | - | - |
| 1777942606 | 15.56° C | 74% | 1010.6 hPa | - | - | - | - |
| 1777942124 | 15.56° C | 74% | 1011.2 hPa | - | - | - | - |
| 1777941641 | 15.56° C | 75% | 1010.6 hPa | - | - | - | - |
| 1777941155 | 15.56° C | 74% | 1010.8 hPa | - | - | - | - |
| 1777940661 | 15.56° C | 74% | 1011 hPa | - | - | - | - |
| 1777940166 | 15.56° C | 74% | 1010.9 hPa | - | - | - | - |
| 1777939481 | 15° C | 76% | 1011.2 hPa | - | - | - | - |
| 1777938990 | 14.44° C | 82% | 1011 hPa | - | - | - | - |
| 1777938501 | 13.89° C | 86% | 1011.6 hPa | - | - | - | - |
| 1777938046 | 14.44° C | 84% | 1010.8 hPa | - | - | - | - |
| 1777937591 | 13.89° C | 86% | 1011 hPa | - | - | - | - |
| 1777937139 | 13.33° C | 88% | 1011.3 hPa | - | - | - | - |
* Rain since midnight (hover to see other rain measurements)
** Current wind speed in m/s (hover to see current wind gust speed)